, TX

(GMT )
Ingleside

Weather History for KTFP - September, 2012

Change the Weather History Date:

Wednesday, September 26, 2012

  Actual Average Record
Temperature  
Mean Temperature 84 °F -  
Max Temperature 91 °F - - ()
Min Temperature 77 °F - - ()
Cooling Degree Days 19    
Growing Degree Days 34 (Base 50)    
Moisture  
Dew Point 71 °F    
Average Humidity 64    
Maximum Humidity 76    
Minimum Humidity 49    
Precipitation  
Precipitation 0.00 in - - ()
Sea Level Pressure  
Sea Level Pressure 29.96 in    
Wind  
Wind Speed 12 mph (SE)    
Max Wind Speed 18 mph    
Max Gust Speed 23 mph    
Visibility 10 miles    
Events      
T = Trace of Precipitation, MM = Missing Value Source: NWS Daily Summary

Daily Weather History Graph

Daily Weather History Graph

Search for Another Location

Airport or City:

Trip Planner

Search our weather history database for the weather conditions in past years. The results will help you decide how hot, cold, wet, or windy it might be!

Date:

Astronomy

Sep. 26, 2012 Rise Set
Actual Time 7:19 AM CDT 7:20 PM CDT
Civil Twilight 6:56 AM CDT 7:43 PM CDT
Nautical Twilight 6:28 AM CDT 8:10 PM CDT
Astronomical Twilight 6:01 AM CDT 8:37 PM CDT
Moon 5:08 PM CDT (9/26) 4:02 AM CDT (9/26)
Length of Visible Light 12h 47m
Length of Day
12h 00m
Waxing Gibbous, 88% of the Moon is Illuminated
Sep 26
Waxing Gibbous
Sep 29
Full
Oct 8
Last Quarter
Oct 15
New
Oct 21
First Quarter

Hourly Weather History & Observations

Time (CDT) Temp. Heat Index Dew Point Humidity Pressure Visibility Wind Dir Wind Speed Gust Speed Precip Events Conditions
12:15 AM 81.7 °F 86.0 °F 71.4 °F 71% 29.97 in 10.0 mi SE 11.5 mph - N/A   Clear
12:35 AM 81.7 °F 85.8 °F 71.2 °F 70% 29.96 in 10.0 mi SSE 11.5 mph 17.3 mph N/A   Clear
12:55 AM 81.9 °F 85.8 °F 70.3 °F 68% 29.96 in 10.0 mi SE 11.5 mph - N/A   Clear
1:15 AM 81.7 °F 85.6 °F 70.5 °F 69% 29.96 in 10.0 mi SE 9.2 mph - N/A   Clear
1:35 AM 81.0 °F 84.7 °F 70.9 °F 71% 29.95 in 10.0 mi SSE 9.2 mph - N/A   Clear
1:55 AM 80.8 °F 84.6 °F 71.1 °F 72% 29.95 in 10.0 mi SSE 10.4 mph - N/A   Clear
2:15 AM 81.3 °F 85.6 °F 71.4 °F 72% 29.94 in 10.0 mi SE 11.5 mph - N/A   Clear
2:35 AM 81.7 °F 86.0 °F 71.6 °F 71% 29.94 in 10.0 mi SSE 15.0 mph - N/A   Clear
2:55 AM 81.9 °F 86.2 °F 71.1 °F 70% 29.94 in 10.0 mi SSE 10.4 mph - N/A   Clear
3:15 AM 81.3 °F 85.2 °F 70.9 °F 70% 29.94 in 10.0 mi SSE 10.4 mph - N/A   Clear
3:55 AM 81.5 °F 85.5 °F 70.9 °F 70% 29.93 in 10.0 mi SSE 10.4 mph - N/A   Scattered Clouds
4:15 AM 81.7 °F 85.8 °F 71.1 °F 70% 29.93 in 10.0 mi SSE 8.1 mph - N/A   Scattered Clouds
4:55 AM 81.5 °F 84.8 °F 69.3 °F 66% 29.93 in 10.0 mi SSE 10.4 mph - N/A   Clear
5:15 AM 81.0 °F 83.9 °F 68.5 °F 66% 29.93 in 10.0 mi SSE 12.7 mph - N/A   Clear
5:35 AM 81.0 °F 84.1 °F 68.9 °F 67% 29.94 in 10.0 mi SSE 8.1 mph - N/A   Clear
5:55 AM 80.4 °F 83.5 °F 69.3 °F 69% 29.94 in 10.0 mi SSE 5.8 mph - N/A   Scattered Clouds
6:15 AM 79.5 °F - 69.6 °F 72% 29.94 in 10.0 mi SSE 6.9 mph - N/A   Scattered Clouds
6:35 AM 79.0 °F - 69.6 °F 73% 29.95 in 10.0 mi SSE 6.9 mph - N/A   Clear
7:15 AM 78.8 °F - 69.4 °F 73% 29.96 in 10.0 mi SE 6.9 mph - N/A   Clear
7:35 AM 77.7 °F - 69.4 °F 76% 29.96 in 10.0 mi SSE 5.8 mph - N/A   Clear
7:55 AM 78.6 °F - 70.0 °F 75% 29.97 in 10.0 mi SSE 5.8 mph - N/A   Clear
8:15 AM 81.1 °F 84.9 °F 70.5 °F 70% 29.97 in 10.0 mi SSE 8.1 mph - N/A   Clear
8:35 AM 83.5 °F 87.4 °F 69.8 °F 63% 29.97 in 10.0 mi SE 9.2 mph - N/A   Clear
8:55 AM 85.1 °F 89.4 °F 69.6 °F 60% 29.97 in 10.0 mi SSE 11.5 mph - N/A   Clear
9:15 AM 86.0 °F 90.7 °F 70.0 °F 59% 29.98 in 10.0 mi SE 13.8 mph - N/A   Clear
9:35 AM 86.7 °F 91.7 °F 70.3 °F 58% 29.98 in 10.0 mi SE 15.0 mph 18.4 mph N/A   Scattered Clouds
9:55 AM 87.4 °F 92.7 °F 70.5 °F 57% 29.99 in 10.0 mi SE 12.7 mph - N/A   Scattered Clouds
10:15 AM 88.2 °F 93.7 °F 70.5 °F 56% 30.00 in 10.0 mi SE 13.8 mph 17.3 mph N/A   Scattered Clouds
11:35 AM 89.4 °F 94.4 °F 69.4 °F 52% 30.00 in 10.0 mi SE 13.8 mph 18.4 mph N/A   Scattered Clouds
12:15 PM 90.1 °F 94.9 °F 69.1 °F 50% 29.99 in 10.0 mi SE 13.8 mph 20.7 mph N/A   Scattered Clouds
12:35 PM 90.5 °F 96.0 °F 70.0 °F 51% 29.99 in 10.0 mi SSE 12.7 mph 21.9 mph N/A   Scattered Clouds
12:55 PM 91.2 °F 96.5 °F 69.4 °F 49% 29.98 in 10.0 mi SE 12.7 mph 19.6 mph N/A   Clear
1:15 PM 90.9 °F 96.7 °F 70.5 °F 51% 29.98 in 10.0 mi SE 17.3 mph 23.0 mph N/A   Scattered Clouds
1:35 PM 89.4 °F 95.8 °F 71.1 °F 55% 29.97 in 10.0 mi SSE 11.5 mph 19.6 mph N/A   Mostly Cloudy
1:55 PM 90.1 °F 96.8 °F 71.4 °F 54% 29.97 in 10.0 mi SE 13.8 mph - N/A   Scattered Clouds
2:15 PM 90.9 °F 97.3 °F 71.1 °F 52% 29.96 in 10.0 mi ESE 15.0 mph 18.4 mph N/A   Scattered Clouds
2:35 PM 90.9 °F 97.3 °F 71.1 °F 52% 29.95 in 10.0 mi SE 16.1 mph 20.7 mph N/A   Scattered Clouds
2:55 PM 90.1 °F 96.8 °F 71.2 °F 54% 29.95 in 10.0 mi SE 16.1 mph 21.9 mph N/A   Scattered Clouds
3:15 PM 90.1 °F 96.3 °F 71.1 °F 53% 29.95 in 10.0 mi ESE 13.8 mph 19.6 mph N/A   Scattered Clouds
3:35 PM 90.3 °F 96.2 °F 70.7 °F 52% 29.94 in 10.0 mi ESE 17.3 mph 20.7 mph N/A   Scattered Clouds
3:55 PM 89.8 °F 95.1 °F 70.2 °F 52% 29.94 in 10.0 mi SE 18.4 mph 23.0 mph N/A   Scattered Clouds
4:15 PM 88.5 °F 94.4 °F 70.9 °F 56% 29.93 in 10.0 mi ESE 15.0 mph 23.0 mph N/A   Clear
4:35 PM 88.9 °F 94.7 °F 70.9 °F 55% 29.93 in 10.0 mi ESE 15.0 mph 23.0 mph N/A   Clear
4:55 PM 88.3 °F 94.1 °F 70.7 °F 56% 29.93 in 10.0 mi SE 17.3 mph 21.9 mph N/A   Clear
5:15 PM 88.2 °F 93.7 °F 70.9 °F 56% 29.94 in 10.0 mi SE 16.1 mph - N/A   Clear
5:35 PM 87.3 °F 92.8 °F 71.1 °F 58% 29.94 in 10.0 mi SE 11.5 mph - N/A   Scattered Clouds
5:55 PM 87.4 °F 93.5 °F 71.4 °F 59% 29.94 in 10.0 mi SE 16.1 mph - N/A   Clear
6:15 PM 86.9 °F 92.9 °F 71.6 °F 60% 29.95 in 10.0 mi ESE 16.1 mph - N/A   Clear
6:35 PM 85.8 °F 91.8 °F 71.8 °F 63% 29.95 in 10.0 mi SE 15.0 mph 20.7 mph N/A   Clear
6:55 PM 85.1 °F 91.5 °F 72.5 °F 66% 29.95 in 10.0 mi ESE 12.7 mph 18.4 mph N/A   Clear
7:15 PM 84.2 °F 90.3 °F 72.5 °F 68% 29.96 in 10.0 mi SE 12.7 mph - N/A   Clear
7:35 PM 83.7 °F 89.7 °F 73.0 °F 70% 29.96 in 10.0 mi ESE 11.5 mph - N/A   Scattered Clouds
7:55 PM 83.3 °F 89.6 °F 73.4 °F 72% 29.96 in 10.0 mi ESE 13.8 mph - N/A   Clear
8:15 PM 83.3 °F 89.6 °F 73.4 °F 72% 29.96 in 10.0 mi SE 13.8 mph 20.7 mph N/A   Clear
8:35 PM 83.3 °F 89.6 °F 73.4 °F 72% 29.97 in 10.0 mi ESE 13.8 mph - N/A   Clear
8:55 PM 83.3 °F 89.3 °F 73.2 °F 71% 29.97 in 10.0 mi SE 11.5 mph - N/A   Clear
9:15 PM 83.1 °F 89.2 °F 73.4 °F 72% 29.97 in 10.0 mi SE 16.1 mph 19.6 mph N/A   Clear
9:35 PM 82.9 °F 89.1 °F 73.4 °F 73% 29.97 in 10.0 mi SE 15.0 mph 20.7 mph N/A   Clear
9:55 PM 83.1 °F 89.5 °F 73.6 °F 73% 29.98 in 10.0 mi ESE 12.7 mph - N/A   Scattered Clouds
10:15 PM 83.1 °F 89.5 °F 73.8 °F 73% 29.98 in 10.0 mi SE 12.7 mph - N/A   Scattered Clouds
10:35 PM 83.1 °F 89.5 °F 73.8 °F 73% 29.99 in 10.0 mi ESE 13.8 mph 17.3 mph N/A   Clear
10:55 PM 83.3 °F 89.9 °F 73.8 °F 73% 29.99 in 10.0 mi SE 12.7 mph 19.6 mph N/A   Clear
11:15 PM 82.9 °F 89.4 °F 73.8 °F 74% 29.99 in 10.0 mi ESE 12.7 mph - N/A   Clear
11:35 PM 83.3 °F 89.6 °F 73.6 °F 72% 29.99 in 10.0 mi SE 11.5 mph 17.3 mph N/A   Clear
11:55 PM 83.1 °F 89.2 °F 73.4 °F 72% 29.99 in 10.0 mi SE 15.0 mph - N/A   Clear